Location: Bednik
(45.3500°N, 16.3833°E)
Time: 05:10:17
(UTC+00:00)

Cosmos 2082 Rocket - Pass Details

Date: 08 August 2020
Orbit: 835 x 852 km, 71.0° (Epoch: 23 September)

Event Time Altitude Azimuth Distance (km) Brightness Sun altitude
Rises 20:01:46 0° 200° (SSW) 3,401 5.1 -16.7°
Reaches altitude 10° 20:04:12 10° 199° (SSW) 2,467 4.4 -17.0°
Maximum altitude 20:09:52 80° 114° (ESE) 864 2.1 -17.7°
Drops below altitude 10° 20:15:34 10° 28° (NNE) 2,473 4.9 -18.4°
Sets 20:18:01 0° 27° (NNE) 3,410 5.6 -18.7°
